Tracking 17138 objects as of 8-July-2015
HD Live streaming from Space Station

COSMOS 2352

Track COSMOS 2352 now!
10-day predictions
COSMOS 2352 is classified as:


NORAD ID: 25363
Int'l Code: 1998-036A
Perigee: 1,318.2 km
Apogee: 1,880.4 km
Inclination: 82.6 °
Period: 118.0 minutes
Semi major axis: 7970 km
RCS: 1.1335 m2 (large)
Launch date: June 15, 1998
Source: Commonwealth of Independent States (former USSR) (CIS)

Satellites have a single simultaneous earth-space and space-earth channel.
Your satellite tracking list
Your tracking list is empty





NASA's NSSDC Master Catalog

Two Line Element Set (TLE):
1 25363U 98036A   15188.16528770  .00000002  00000-0 -62824-4 0  9993
2 25363 082.5896 201.2142 0352718 014.7476 050.1852 12.20083021759737

Source of the keplerian elements: AFSPC

N2YO: 336